Location: Casteau
(50.5142°N, 4.0161°E)
Time: 20:02:44
(UTC+00:00)

Transit 2A - Pass Details

Date: 31 July 2021
Orbit: 594 x 964 km, 66.7° (Epoch: 27 September)

Event Time Altitude Azimuth Distance (km) Brightness Sun altitude
Rises 05:47:19 0° 189° (S) 2,831 8.7 13.5°
Reaches altitude 10° 05:49:38 10° 179° (S) 1,951 8.1 13.8°
Maximum altitude 05:53:34 34° 115° (ESE) 1,047 7.7 14.4°
Drops below altitude 10° 05:57:46 10° 51° (NE) 2,089 9.6 15.1°
Sets 06:00:20 0° 43° (NE) 3,064 10.0 15.5°
